SAUDISAT 5A

Last updated on Thu Nov 21 2024 00:02:28 GMT+0000 (Coordinated Universal Time)

1 43831U 18102A 24325.59696587 .00009606 00000+0 45734-3 0 9998 2 43831 97.3884 27.6288 0011595 1.2756 358.8507 15.19294516328311
UTC large
Height (km)
Speed (km/s)
/
Latitude / Longitude
Inclination (degrees)
Orbital Period (minutes)
Azimuth
Elevation
Range (km)
Doppler Factor

Next 0 passes for location: London (51.5072 / 0.1276)

Sorry there are no passes over London.